Regional Weather Roundup
Issued by NWS

Home | Current Version | Previous Version | Graphics & Text | Print | Product List | Glossary On
Versions: 1 2 3 4 5 6 7 8 9 10 11 12 13 14 15 16 17 18 19 20 21 22 23 24 25 26 27 28 29 30 31 32 33 34 35 36 37 38 39 40 41 42 43 44 45 46 47 48 49 50
571
ASUS43 KTOP 291159
RWRKS

WEATHER ROUNDUP FOR KANSAS
NATIONAL WEATHER SERVICE GOODLAND KS
700 AM CDT FRI APR 29 2016

NOTE:  "FAIR" INDICATES FEW OR NO CLOUDS BELOW 12,000 FEET WITH NO
SIGNIFICANT WEATHER AND/OR OBSTRUCTIONS TO VISIBILITY.

KSZ001>006-013>018-027>032-041>047-291300-
NORTHWEST KANSAS

CITY           SKY/WX    TMP DP  RH WIND       PRES   REMARKS
GOODLAND       LGT RAIN  39  38  96 NE8       30.01R
6HR MIN TEMP:  39; 6HR MAX TEMP:  42; 6HR PCP:  0.29;

HAYS           CLOUDY    45  36  70 E22G30    29.97F
HILL CITY      CLOUDY    44  42  93 NE15      30.00F
6HR MIN TEMP:  44; 6HR MAX TEMP:  47; 6HR PCP:  0.04;

RUSSELL        RAIN      44  43  96 NE25      29.97F FOG
6HR MIN TEMP:  44; 6HR MAX TEMP:  48; 6HR PCP:  0.21;

$$

KSZ061>065-074>080-084>089-291300-
SOUTHWEST KANSAS

CITY           SKY/WX    TMP DP  RH WIND       PRES   REMARKS
DODGE CITY     LGT RAIN  44  42  93 E24G37    29.90F
6HR MIN TEMP:  43; 6HR MAX TEMP:  50; 6HR PCP:  0.91;

ELKHART          N/A     43  40  89 NE18        N/A
GARDEN CITY    CLOUDY    43  41  93 NE25G36   29.90S
6HR MIN TEMP:  43; 6HR MAX TEMP:  48; 6HR PCP:  0.57;

GREAT BEND     CLOUDY    45  37  76 NE18      30.01F
LIBERAL        CLOUDY    46  43  87 E20G29    29.85F
$$

KSZ066>073-081>083-090>101-291300-
SOUTHEAST KANSAS

CITY           SKY/WX    TMP DP  RH WIND       PRES   REMARKS
CHANUTE        CLOUDY    50  44  80 E10       29.97S
6HR MIN TEMP:  50; 6HR MAX TEMP:  56;

COFFEYVILLE    CLOUDY    52  47  83 NE17      29.92F
6HR MIN TEMP:  52; 6HR MAX TEMP:  59;

HUTCHINSON     LGT RAIN  49  45  86 N17G25    29.98R
6HR MIN TEMP:  49; 6HR MAX TEMP:  52; 6HR PCP:  0.03;

MEDICINE LODGE   N/A     49  47  93 N22G32    29.91R
NEWTON         CLOUDY    46  39  76 NE16G23   29.97R
PARSONS        CLOUDY    52  46  80 NE8G18    29.94F
6HR MIN TEMP:  52; 6HR MAX TEMP:  58;

WICHITA INTL   CLOUDY    51  45  79 NE23G29   29.90R
6HR MIN TEMP:  51; 6HR MAX TEMP:  56; 6HR PCP: TRACE;

WICHITA JABRA  CLOUDY    49  45  86 NE20G26   29.91R
6HR MIN TEMP:  49; 6HR MAX TEMP:  53;

WINFIELD       CLOUDY    52  45  77 E18G29    29.88R
6HR MIN TEMP:  52; 6HR MAX TEMP:  59;

$$

KSZ007>012-019>026-033>040-048>060-102>105-291300-
NORTHEAST KANSAS

CITY           SKY/WX    TMP DP  RH WIND       PRES   REMARKS
CONCORDIA      CLOUDY    45  39  79 NE7       30.07R
6HR MIN TEMP:  45; 6HR MAX TEMP:  49;

EMPORIA        PTCLDY    48  43  82 NE17G25   29.97F
6HR MIN TEMP:  47; 6HR MAX TEMP:  52; 6HR PCP: TRACE;

LAWRENCE       CLOUDY    47  43  86 N10       30.00F
6HR MIN TEMP:  47; 6HR MAX TEMP:  51; 6HR PCP:  0.01;

MANHATTAN      CLOUDY    48  41  76 NE13      30.03F
6HR MIN TEMP:  48; 6HR MAX TEMP:  52; 6HR PCP: TRACE;

OLATHE IND     PTCLDY    48  43  82 NE10      30.02F
6HR MIN TEMP:  47; 6HR MAX TEMP:  50;

OLATHE EXE     PTCLDY    47  42  83 NE10      30.01F
6HR MIN TEMP:  47; 6HR MAX TEMP:  51;

SALINA         RAIN      48  45  89 N15       30.03R
6HR MIN TEMP:  48; 6HR MAX TEMP:  53; 6HR PCP:  0.07;

TOPEKA BILLARD CLOUDY    48  43  82 NE12      30.02F
6HR MIN TEMP:  48; 6HR MAX TEMP:  51; 6HR PCP:  0.03;

TOPEKA FORBES  MOCLDY    49  44  83 NE6       30.02F
6HR MIN TEMP:  49; 6HR MAX TEMP:  53; 6HR PCP:  0.01;

$$




USA.gov is the U.S. government's official web portal to all federal, state and local government web resources and services.